Year,Month,Day,Hour,Minute,Value (Times are PST for temperature in C)
2009,09,28,00,00,7.10
2009,09,28,00,01,7.10
2009,09,28,00,02,7.00
2009,09,28,00,03,7.00
2009,09,28,00,04,7.00
2009,09,28,00,05,7.00
2009,09,28,00,06,6.90
2009,09,28,00,07,6.90
2009,09,28,00,08,6.90
2009,09,28,00,09,6.90
2009,09,28,00,10,6.90
2009,09,28,00,11,6.90
2009,09,28,00,12,6.80
2009,09,28,00,17,6.80
2009,09,28,00,18,6.80
2009,09,28,00,19,6.80
2009,09,28,00,20,6.80
2009,09,28,00,21,6.80
2009,09,28,00,22,6.80
2009,09,28,00,23,6.80
2009,09,28,00,24,6.80
2009,09,28,00,25,6.80
2009,09,28,00,26,6.80
2009,09,28,00,27,6.80
2009,09,28,00,28,6.80
2009,09,28,00,29,6.80
2009,09,28,00,30,6.80
2009,09,28,00,31,6.90
2009,09,28,00,32,6.90
2009,09,28,00,33,6.90
2009,09,28,00,34,6.90
2009,09,28,00,35,6.90
2009,09,28,00,36,6.90
2009,09,28,00,37,6.90
2009,09,28,00,38,6.90
2009,09,28,00,39,6.90
2009,09,28,00,40,6.90
2009,09,28,00,41,6.90
2009,09,28,00,42,6.90
2009,09,28,00,43,6.90
2009,09,28,00,44,6.90
2009,09,28,00,45,6.90
2009,09,28,00,46,6.90
2009,09,28,00,47,6.90
2009,09,28,00,48,6.90
2009,09,28,00,49,6.90
2009,09,28,00,50,6.80
2009,09,28,00,51,6.80
2009,09,28,00,52,6.80
2009,09,28,00,53,6.80
2009,09,28,00,54,6.80
2009,09,28,00,55,6.80
2009,09,28,00,56,6.80
2009,09,28,00,57,6.80
2009,09,28,00,58,6.70
2009,09,28,00,59,6.70
2009,09,28,01,00,6.70
2009,09,28,01,01,6.70
2009,09,28,01,02,6.70
2009,09,28,01,03,6.70
2009,09,28,01,04,6.70
2009,09,28,01,05,6.60
2009,09,28,01,06,6.60
2009,09,28,01,07,6.60
2009,09,28,01,08,6.60
2009,09,28,01,09,6.60
2009,09,28,01,10,6.50
2009,09,28,01,11,6.50
2009,09,28,01,12,6.50
2009,09,28,01,13,6.50
2009,09,28,01,14,6.50
2009,09,28,01,15,6.40
2009,09,28,01,16,6.40
2009,09,28,01,17,6.40
2009,09,28,01,18,6.40
2009,09,28,01,19,6.40
2009,09,28,01,20,6.40
2009,09,28,01,21,6.40
2009,09,28,01,22,6.40
2009,09,28,01,23,6.40
2009,09,28,01,24,6.40
2009,09,28,01,25,6.40
2009,09,28,01,26,6.30
2009,09,28,01,27,6.30
2009,09,28,01,28,6.30
2009,09,28,01,29,6.30
2009,09,28,01,30,6.30
2009,09,28,01,31,6.30
2009,09,28,01,32,6.30
2009,09,28,01,33,6.30
2009,09,28,01,34,6.30
2009,09,28,01,35,6.30
2009,09,28,01,36,6.30
2009,09,28,01,37,6.30
2009,09,28,01,38,6.30
2009,09,28,01,39,6.30
2009,09,28,01,40,6.30
2009,09,28,01,41,6.20
2009,09,28,01,42,6.20
2009,09,28,01,43,6.20
2009,09,28,01,44,6.20
2009,09,28,01,45,6.20
2009,09,28,01,46,6.30
2009,09,28,01,47,6.30
2009,09,28,01,48,6.30
2009,09,28,01,49,6.30
2009,09,28,01,50,6.30
2009,09,28,01,51,6.30
2009,09,28,01,52,6.30
2009,09,28,01,53,6.30
2009,09,28,01,54,6.30
2009,09,28,01,55,6.30
2009,09,28,01,56,6.30
2009,09,28,01,57,6.20
2009,09,28,01,58,6.20
2009,09,28,01,59,6.20
2009,09,28,02,00,6.20
2009,09,28,02,01,6.20
2009,09,28,02,02,6.20
2009,09,28,02,03,6.20
2009,09,28,02,04,6.20
2009,09,28,02,05,6.10
2009,09,28,02,06,6.10
2009,09,28,02,07,6.10
2009,09,28,02,08,6.00
2009,09,28,02,09,6.00
2009,09,28,02,10,6.00
2009,09,28,02,11,6.00
2009,09,28,02,12,6.00
2009,09,28,02,13,6.00
2009,09,28,02,14,6.00
2009,09,28,02,15,6.00
2009,09,28,02,16,5.90
2009,09,28,02,17,5.90
2009,09,28,02,18,5.90
2009,09,28,02,19,5.90
2009,09,28,02,20,5.90
2009,09,28,02,21,5.90
2009,09,28,02,22,5.90
2009,09,28,02,23,5.90
2009,09,28,02,24,5.90
2009,09,28,02,25,5.90
2009,09,28,02,26,5.90
2009,09,28,02,27,5.90
2009,09,28,02,28,5.90
2009,09,28,02,29,5.90
2009,09,28,02,30,5.90
2009,09,28,02,31,5.90
2009,09,28,02,32,5.80
2009,09,28,02,33,5.80
2009,09,28,02,34,5.80
2009,09,28,02,35,5.80
2009,09,28,02,36,5.80
2009,09,28,02,37,5.70
2009,09,28,02,38,5.70
2009,09,28,02,39,5.70
2009,09,28,02,40,5.70
2009,09,28,02,41,5.70
2009,09,28,02,42,5.70
2009,09,28,02,43,5.70
2009,09,28,02,44,5.60
2009,09,28,02,45,5.60
2009,09,28,02,46,5.60
2009,09,28,02,47,5.60
2009,09,28,02,48,5.60
2009,09,28,02,49,5.60
2009,09,28,02,50,5.60
2009,09,28,02,51,5.60
2009,09,28,02,52,5.60
2009,09,28,02,53,5.60
2009,09,28,02,54,5.60
2009,09,28,02,55,5.60
2009,09,28,02,56,5.60
2009,09,28,02,57,5.60
2009,09,28,02,58,5.50
2009,09,28,02,59,5.50
2009,09,28,03,00,5.50
2009,09,28,03,01,5.50
2009,09,28,03,02,5.50
2009,09,28,03,03,5.50
2009,09,28,03,04,5.50
2009,09,28,03,05,5.50
2009,09,28,03,06,5.50
2009,09,28,03,07,5.50
2009,09,28,03,08,5.50
2009,09,28,03,09,5.50
2009,09,28,03,10,5.50
2009,09,28,03,11,5.50
2009,09,28,03,12,5.50
2009,09,28,03,13,5.50
2009,09,28,03,14,5.50
2009,09,28,03,15,5.50
2009,09,28,03,16,5.50
2009,09,28,03,17,5.50
2009,09,28,03,18,5.50
2009,09,28,03,19,5.50
2009,09,28,03,20,5.50
2009,09,28,03,21,5.50
2009,09,28,03,22,5.50
2009,09,28,03,23,5.50
2009,09,28,03,24,5.40
2009,09,28,03,25,5.40
2009,09,28,03,26,5.40
2009,09,28,03,27,5.40
2009,09,28,03,28,5.50
2009,09,28,03,29,5.50
2009,09,28,03,30,5.50
2009,09,28,03,31,5.50
2009,09,28,03,32,5.60
2009,09,28,03,33,5.60
2009,09,28,03,34,5.60
2009,09,28,03,35,5.60
2009,09,28,03,36,5.60
2009,09,28,03,37,5.60
2009,09,28,03,38,5.60
2009,09,28,03,39,5.70
2009,09,28,03,40,5.70
2009,09,28,03,41,5.70
2009,09,28,03,42,5.70
2009,09,28,03,43,5.70
2009,09,28,03,44,5.70
2009,09,28,03,45,5.70
2009,09,28,03,46,5.70
2009,09,28,03,47,5.70
2009,09,28,03,48,5.80
2009,09,28,03,49,5.80
2009,09,28,03,50,5.80
2009,09,28,03,51,5.80
2009,09,28,03,52,5.80
2009,09,28,03,53,5.80
2009,09,28,03,54,5.80
2009,09,28,03,55,5.80
2009,09,28,03,56,5.80
2009,09,28,03,57,5.80
2009,09,28,03,58,5.90
2009,09,28,03,59,5.90
2009,09,28,04,00,5.90
2009,09,28,04,01,6.00
2009,09,28,04,02,6.10
2009,09,28,04,03,6.10
2009,09,28,04,04,6.10
2009,09,28,04,05,6.10
2009,09,28,04,06,6.10
2009,09,28,04,07,6.10
2009,09,28,04,08,6.20
2009,09,28,04,09,6.10
2009,09,28,04,10,6.10
2009,09,28,04,11,6.10
2009,09,28,04,12,6.10
2009,09,28,04,13,6.10
2009,09,28,04,14,6.00
2009,09,28,04,15,6.00
2009,09,28,04,16,5.90
2009,09,28,04,17,5.90
2009,09,28,04,18,5.90
2009,09,28,04,19,5.80
2009,09,28,04,20,5.80
2009,09,28,04,21,5.80
2009,09,28,04,22,5.70
2009,09,28,04,23,5.70
2009,09,28,04,24,5.70
2009,09,28,04,25,5.60
2009,09,28,04,26,5.50
2009,09,28,04,27,5.50
2009,09,28,04,28,5.40
2009,09,28,04,29,5.40
2009,09,28,04,30,5.40
2009,09,28,04,31,5.40
2009,09,28,04,32,5.30
2009,09,28,04,33,5.30
2009,09,28,04,34,5.30
2009,09,28,04,35,5.30
2009,09,28,04,36,5.30
2009,09,28,04,37,5.20
2009,09,28,04,38,5.20
2009,09,28,04,39,5.20
2009,09,28,04,40,5.20
2009,09,28,04,41,5.20
2009,09,28,04,42,5.20
2009,09,28,04,43,5.10
2009,09,28,04,44,5.10
2009,09,28,04,45,5.10
2009,09,28,04,46,5.10
2009,09,28,04,47,5.10
2009,09,28,04,48,5.00
2009,09,28,04,49,5.00
2009,09,28,04,50,5.00
2009,09,28,04,51,5.00
2009,09,28,04,52,5.00
2009,09,28,04,53,4.90
2009,09,28,04,54,4.90
2009,09,28,04,55,4.90
2009,09,28,04,56,4.90
2009,09,28,04,57,4.80
2009,09,28,04,58,4.80
2009,09,28,04,59,4.80
2009,09,28,05,00,4.80
2009,09,28,05,01,4.80
2009,09,28,05,02,4.80
2009,09,28,05,03,4.80
2009,09,28,05,04,4.70
2009,09,28,05,05,4.70
2009,09,28,05,06,4.70
2009,09,28,05,07,4.70
2009,09,28,05,08,4.70
2009,09,28,05,09,4.70
2009,09,28,05,10,4.60
2009,09,28,05,11,4.60
2009,09,28,05,12,4.60
2009,09,28,05,13,4.60
2009,09,28,05,14,4.60
2009,09,28,05,15,4.60
2009,09,28,05,16,4.60
2009,09,28,05,17,4.50
2009,09,28,05,18,4.50
2009,09,28,05,19,4.50
2009,09,28,05,20,4.50
2009,09,28,05,21,4.50
2009,09,28,05,22,4.50
2009,09,28,05,23,4.40
2009,09,28,05,24,4.40
2009,09,28,05,25,4.40
2009,09,28,05,26,4.40
2009,09,28,05,27,4.40
2009,09,28,05,28,4.40
2009,09,28,05,29,4.30
2009,09,28,05,30,4.30
2009,09,28,05,31,4.30
2009,09,28,05,32,4.30
2009,09,28,05,33,4.30
2009,09,28,05,34,4.30
2009,09,28,05,35,4.30
2009,09,28,05,36,4.30
2009,09,28,05,37,4.30
2009,09,28,05,38,4.30
2009,09,28,05,39,4.30
2009,09,28,05,40,4.30
2009,09,28,05,41,4.30
2009,09,28,05,42,4.30
2009,09,28,05,43,4.30
2009,09,28,05,44,4.30
2009,09,28,05,45,4.30
2009,09,28,05,46,4.30
2009,09,28,05,47,4.30
2009,09,28,05,48,4.30
2009,09,28,05,49,4.30
2009,09,28,05,50,4.30
2009,09,28,05,51,4.30
2009,09,28,05,52,4.30
2009,09,28,05,53,4.30
2009,09,28,05,54,4.30
2009,09,28,05,55,4.40
2009,09,28,05,56,4.40
2009,09,28,05,57,4.40
2009,09,28,05,58,4.40
2009,09,28,05,59,4.40
2009,09,28,06,00,4.40
2009,09,28,06,01,4.40
2009,09,28,06,02,4.40
2009,09,28,06,03,4.30
2009,09,28,06,04,4.30
2009,09,28,06,05,4.30
2009,09,28,06,06,4.30
2009,09,28,06,07,4.30
2009,09,28,06,08,4.30
2009,09,28,06,09,4.30
2009,09,28,06,10,4.30
2009,09,28,06,11,4.40
2009,09,28,06,12,4.40
2009,09,28,06,13,4.40
2009,09,28,06,14,4.40
2009,09,28,06,15,4.50
2009,09,28,06,16,4.50
2009,09,28,06,17,4.50
2009,09,28,06,18,4.50
2009,09,28,06,19,4.50
2009,09,28,06,20,4.40
2009,09,28,06,21,4.40
2009,09,28,06,22,4.40
2009,09,28,06,23,4.40
2009,09,28,06,24,4.40
2009,09,28,06,25,4.40
2009,09,28,06,26,4.30
2009,09,28,06,27,4.30
2009,09,28,06,28,4.30
2009,09,28,06,29,4.30
2009,09,28,06,30,4.30
2009,09,28,06,31,4.30
2009,09,28,06,32,4.30
2009,09,28,06,33,4.30
2009,09,28,06,34,4.30
2009,09,28,06,35,4.30
2009,09,28,06,36,4.30
2009,09,28,06,37,4.30
2009,09,28,06,38,4.30
2009,09,28,06,39,4.30
2009,09,28,06,40,4.30
2009,09,28,06,41,4.40
2009,09,28,06,42,4.40
2009,09,28,06,43,4.40
2009,09,28,06,44,4.40
2009,09,28,06,45,4.40
2009,09,28,06,46,4.40
2009,09,28,06,47,4.40
2009,09,28,06,48,4.40
2009,09,28,06,49,4.40
2009,09,28,06,50,4.40
2009,09,28,06,51,4.40
2009,09,28,06,52,4.40
2009,09,28,06,53,4.40
2009,09,28,06,54,4.40
2009,09,28,06,55,4.50
2009,09,28,06,56,4.50
2009,09,28,06,57,4.50
2009,09,28,06,58,4.50
2009,09,28,06,59,4.50
2009,09,28,07,00,4.50
2009,09,28,07,01,4.50
2009,09,28,07,02,4.60
2009,09,28,07,03,4.50
2009,09,28,07,04,4.50
2009,09,28,07,05,4.50
2009,09,28,07,06,4.50
2009,09,28,07,07,4.50
2009,09,28,07,08,4.50
2009,09,28,07,09,4.40
2009,09,28,07,10,4.40
2009,09,28,07,11,4.50
2009,09,28,07,12,4.50
2009,09,28,07,13,4.50
2009,09,28,07,14,4.50
2009,09,28,07,15,4.50
2009,09,28,07,16,4.50
2009,09,28,07,17,4.60
2009,09,28,07,18,4.60
2009,09,28,07,19,4.60
2009,09,28,07,20,4.60
2009,09,28,07,21,4.60
2009,09,28,07,22,4.60
2009,09,28,07,23,4.60
2009,09,28,07,24,4.60
2009,09,28,07,25,4.60
2009,09,28,07,26,4.60
2009,09,28,07,27,4.60
2009,09,28,07,28,4.60
2009,09,28,07,29,4.60
2009,09,28,07,30,4.60
2009,09,28,07,31,4.60
2009,09,28,07,32,4.60
2009,09,28,07,33,4.60
2009,09,28,07,34,4.60
2009,09,28,07,35,4.60
2009,09,28,07,36,4.60
2009,09,28,07,37,4.60
2009,09,28,07,38,4.60
2009,09,28,07,39,4.60
2009,09,28,07,40,4.60
2009,09,28,07,41,4.50
2009,09,28,07,42,4.50
2009,09,28,07,43,4.60
2009,09,28,07,44,4.60
2009,09,28,07,45,4.60
2009,09,28,07,46,4.60
2009,09,28,07,47,4.70
2009,09,28,07,48,4.70
2009,09,28,07,49,4.70
2009,09,28,07,50,4.70
2009,09,28,07,51,4.70
2009,09,28,07,52,4.70
2009,09,28,07,53,4.70
2009,09,28,07,54,4.70
2009,09,28,07,55,4.70
2009,09,28,07,56,4.70
2009,09,28,07,57,4.70
2009,09,28,07,58,4.70
2009,09,28,07,59,4.70
2009,09,28,08,00,4.70
2009,09,28,08,01,4.70
2009,09,28,08,02,4.70
2009,09,28,08,03,4.70
2009,09,28,08,04,4.80
2009,09,28,08,05,4.80
2009,09,28,08,06,4.80
2009,09,28,08,07,4.80
2009,09,28,08,08,4.80
2009,09,28,08,09,4.80
2009,09,28,08,10,4.80
2009,09,28,08,11,4.90
2009,09,28,08,12,4.90
2009,09,28,08,13,4.90
2009,09,28,08,14,5.00
2009,09,28,08,15,5.00
2009,09,28,08,16,5.10
2009,09,28,08,17,5.10
2009,09,28,08,18,5.10
2009,09,28,08,19,5.20
2009,09,28,08,20,5.20
2009,09,28,08,21,5.20
2009,09,28,08,22,5.30
2009,09,28,08,23,5.30
2009,09,28,08,24,5.40
2009,09,28,08,25,5.40
2009,09,28,08,26,5.50
2009,09,28,08,27,5.50
2009,09,28,08,28,5.50
2009,09,28,08,29,5.60
2009,09,28,08,30,5.60
2009,09,28,08,31,5.70
2009,09,28,08,32,5.70
2009,09,28,08,33,5.80
2009,09,28,08,34,5.80
2009,09,28,08,35,5.80
2009,09,28,08,36,5.90
2009,09,28,08,37,5.90
2009,09,28,08,38,5.90
2009,09,28,08,39,5.90
2009,09,28,08,40,6.00
2009,09,28,08,41,6.00
2009,09,28,08,42,6.00
2009,09,28,08,43,6.00
2009,09,28,08,44,6.10
2009,09,28,08,45,6.10
2009,09,28,08,46,6.10
2009,09,28,08,47,6.20
2009,09,28,08,48,6.20
2009,09,28,08,49,6.30
2009,09,28,08,50,6.30
2009,09,28,08,51,6.30
2009,09,28,08,52,6.30
2009,09,28,08,53,6.40
2009,09,28,08,54,6.40
2009,09,28,08,55,6.50
2009,09,28,08,56,6.60
2009,09,28,08,57,6.60
2009,09,28,08,58,6.70
2009,09,28,08,59,6.70
2009,09,28,09,00,6.80
2009,09,28,09,01,6.80
2009,09,28,09,02,6.80
2009,09,28,09,03,6.90
2009,09,28,09,04,6.90
2009,09,28,09,05,7.00
2009,09,28,09,06,7.00
2009,09,28,09,07,7.10
2009,09,28,09,08,7.10
2009,09,28,09,09,7.20
2009,09,28,09,10,7.20
2009,09,28,09,11,7.20
2009,09,28,09,12,7.30
2009,09,28,09,13,7.30
2009,09,28,09,14,7.40
2009,09,28,09,15,7.40
2009,09,28,09,16,7.50
2009,09,28,09,17,7.60
2009,09,28,09,18,7.70
2009,09,28,09,19,7.80
2009,09,28,09,20,7.90
2009,09,28,09,21,8.00
2009,09,28,09,22,8.10
2009,09,28,09,23,8.20
2009,09,28,09,24,8.30
2009,09,28,09,25,8.40
2009,09,28,09,26,8.50
2009,09,28,09,27,8.60
2009,09,28,09,28,8.70
2009,09,28,09,29,8.80
2009,09,28,09,30,8.90
2009,09,28,09,31,8.90
2009,09,28,09,32,9.00
2009,09,28,09,33,9.10
2009,09,28,09,34,9.10
2009,09,28,09,35,9.10
2009,09,28,09,36,9.20
2009,09,28,09,37,9.20
2009,09,28,09,38,9.10
2009,09,28,09,39,9.10
2009,09,28,09,40,9.20
2009,09,28,09,41,9.20
2009,09,28,09,42,9.20
2009,09,28,09,43,9.30
2009,09,28,09,44,9.30
2009,09,28,09,45,9.30
2009,09,28,09,46,9.40
2009,09,28,09,47,9.50
2009,09,28,09,48,9.50
2009,09,28,09,49,9.60
2009,09,28,09,50,9.60
2009,09,28,09,51,9.70
2009,09,28,09,52,9.70
2009,09,28,09,53,9.70
2009,09,28,09,54,9.70
2009,09,28,09,55,9.80
2009,09,28,09,56,9.80
2009,09,28,09,57,9.80
2009,09,28,09,58,9.90
2009,09,28,09,59,9.90
2009,09,28,10,00,10.00
2009,09,28,10,01,10.00
2009,09,28,10,02,10.10
2009,09,28,10,03,10.10
2009,09,28,10,04,10.10
2009,09,28,10,05,10.20
2009,09,28,10,06,10.20
2009,09,28,10,07,10.30
2009,09,28,10,08,10.30
2009,09,28,10,09,10.40
2009,09,28,10,10,10.40
2009,09,28,10,11,10.40
2009,09,28,10,12,10.50
2009,09,28,10,13,10.50
2009,09,28,10,14,10.50
2009,09,28,10,15,10.50
2009,09,28,10,16,10.40
2009,09,28,10,17,10.40
2009,09,28,10,18,10.40
2009,09,28,10,19,10.40
2009,09,28,10,20,10.40
2009,09,28,10,21,10.40
2009,09,28,10,22,10.40
2009,09,28,10,23,10.40
2009,09,28,10,24,10.40
2009,09,28,10,25,10.40
2009,09,28,10,26,10.50
2009,09,28,10,27,10.50
2009,09,28,10,28,10.50
2009,09,28,10,29,10.50
2009,09,28,10,30,10.40
2009,09,28,10,31,10.40
2009,09,28,10,32,10.40
2009,09,28,10,33,10.40
2009,09,28,10,34,10.40
2009,09,28,10,35,10.40
2009,09,28,10,36,10.40
2009,09,28,10,37,10.40
2009,09,28,10,38,10.40
2009,09,28,10,39,10.40
2009,09,28,10,40,10.40
2009,09,28,10,41,10.40
2009,09,28,10,42,10.40
2009,09,28,10,43,10.50
2009,09,28,10,44,10.50
2009,09,28,10,45,10.50
2009,09,28,10,46,10.60
2009,09,28,10,47,10.60
2009,09,28,10,48,10.70
2009,09,28,10,49,10.70
2009,09,28,10,50,10.70
2009,09,28,10,51,10.80
2009,09,28,10,52,10.80
2009,09,28,10,53,10.80
2009,09,28,10,54,10.80
2009,09,28,10,55,10.80
2009,09,28,10,56,10.80
2009,09,28,10,57,10.80
2009,09,28,10,58,10.90
2009,09,28,10,59,10.90
2009,09,28,11,00,10.90
2009,09,28,11,01,10.90
2009,09,28,11,02,11.00
2009,09,28,11,03,11.00
2009,09,28,11,04,11.00
2009,09,28,11,05,11.10
2009,09,28,11,06,11.10
2009,09,28,11,07,11.10
2009,09,28,11,08,11.10
2009,09,28,11,09,11.20
2009,09,28,11,10,11.20
2009,09,28,11,11,11.20
2009,09,28,11,12,11.20
2009,09,28,11,13,11.30
2009,09,28,11,14,11.30
2009,09,28,11,15,11.30
2009,09,28,11,16,11.40
2009,09,28,11,17,11.40
2009,09,28,11,18,11.50
2009,09,28,11,19,11.50
2009,09,28,11,20,11.60
2009,09,28,11,21,11.60
2009,09,28,11,22,11.70
2009,09,28,11,23,11.70
2009,09,28,11,24,11.80
2009,09,28,11,25,11.80
2009,09,28,11,26,11.90
2009,09,28,11,27,11.90
2009,09,28,11,28,11.90
2009,09,28,11,29,12.00
2009,09,28,11,30,12.00
2009,09,28,11,31,12.00
2009,09,28,11,32,12.00
2009,09,28,11,33,12.10
2009,09,28,11,34,12.10
2009,09,28,11,35,12.10
2009,09,28,11,36,12.10
2009,09,28,11,37,12.10
2009,09,28,11,38,12.10
2009,09,28,11,39,12.10
2009,09,28,11,40,12.10
2009,09,28,11,41,12.10
2009,09,28,11,42,12.10
2009,09,28,11,43,12.10
2009,09,28,11,44,12.10
2009,09,28,11,45,12.10
2009,09,28,11,46,12.10
2009,09,28,11,47,12.20
2009,09,28,11,48,12.20
2009,09,28,11,49,12.20
2009,09,28,11,50,12.20
2009,09,28,11,51,12.20
2009,09,28,11,52,12.20
2009,09,28,11,53,12.20
2009,09,28,11,54,12.20
2009,09,28,11,55,12.30
2009,09,28,11,56,12.30
2009,09,28,11,57,12.30
2009,09,28,11,58,12.30
2009,09,28,11,59,12.30
2009,09,28,12,00,12.40
2009,09,28,12,01,12.40
2009,09,28,12,02,12.40
2009,09,28,12,03,12.40
2009,09,28,12,04,12.50
2009,09,28,12,05,12.50
2009,09,28,12,06,12.60
2009,09,28,12,07,12.60
2009,09,28,12,08,12.60
2009,09,28,12,09,12.60
2009,09,28,12,10,12.70
2009,09,28,12,11,12.70
2009,09,28,12,12,12.70
2009,09,28,12,13,12.80
2009,09,28,12,14,12.80
2009,09,28,12,15,12.90
2009,09,28,12,16,13.00
2009,09,28,12,17,13.10
2009,09,28,12,18,13.10
2009,09,28,12,19,13.10
2009,09,28,12,20,13.10
2009,09,28,12,21,13.10
2009,09,28,12,22,13.10
2009,09,28,12,23,13.10
2009,09,28,12,24,13.10
2009,09,28,12,25,13.10
2009,09,28,12,26,13.10
2009,09,28,12,27,13.10
2009,09,28,12,28,13.10
2009,09,28,12,29,13.10
2009,09,28,12,30,13.20
2009,09,28,12,31,13.20
2009,09,28,12,32,13.20
2009,09,28,12,33,13.10
2009,09,28,12,34,13.10
2009,09,28,12,35,13.10
2009,09,28,12,36,13.10
2009,09,28,12,37,13.10
2009,09,28,12,38,13.00
2009,09,28,12,39,12.90
2009,09,28,12,40,12.90
2009,09,28,12,41,12.80
2009,09,28,12,42,12.80
2009,09,28,12,43,12.70
2009,09,28,12,44,12.70
2009,09,28,12,45,12.60
2009,09,28,12,46,12.60
2009,09,28,12,47,12.60
2009,09,28,12,48,12.60
2009,09,28,12,49,12.60
2009,09,28,12,50,12.60
2009,09,28,12,51,12.50
2009,09,28,12,52,12.50
2009,09,28,12,53,12.50
2009,09,28,12,54,12.40
2009,09,28,12,55,12.40
2009,09,28,12,56,12.40
2009,09,28,12,57,12.40
2009,09,28,12,58,12.40
2009,09,28,12,59,12.40
2009,09,28,13,00,12.30
2009,09,28,13,01,12.30
2009,09,28,13,02,12.30
2009,09,28,13,03,12.20
2009,09,28,13,04,12.20
2009,09,28,13,05,12.20
2009,09,28,13,06,12.20
2009,09,28,13,07,12.10
2009,09,28,13,08,12.10
2009,09,28,13,09,12.00
2009,09,28,13,10,12.00
2009,09,28,13,11,12.00
2009,09,28,13,12,11.90
2009,09,28,13,13,11.90
2009,09,28,13,14,11.90
2009,09,28,13,15,11.80
2009,09,28,13,16,11.80
2009,09,28,13,17,11.80
2009,09,28,13,18,11.80
2009,09,28,13,19,11.70
2009,09,28,13,20,11.70
2009,09,28,13,21,11.70
2009,09,28,13,22,11.70
2009,09,28,13,23,11.60
2009,09,28,13,24,11.50
2009,09,28,13,25,11.50
2009,09,28,13,26,11.40
2009,09,28,13,27,11.40
2009,09,28,13,28,11.30
2009,09,28,13,29,11.30
2009,09,28,13,30,11.30
2009,09,28,13,31,11.30
2009,09,28,13,32,11.30
2009,09,28,13,33,11.30
2009,09,28,13,34,11.20
2009,09,28,13,35,11.20
2009,09,28,13,36,11.20
2009,09,28,13,37,11.20
2009,09,28,13,38,11.10
2009,09,28,13,39,11.10
2009,09,28,13,40,11.10
2009,09,28,13,41,11.00
2009,09,28,13,42,11.00
2009,09,28,13,43,11.00
2009,09,28,13,44,11.00
2009,09,28,13,45,10.90
2009,09,28,13,46,10.90
2009,09,28,13,47,10.90
2009,09,28,13,48,10.80
2009,09,28,13,49,10.80
2009,09,28,13,50,10.80
2009,09,28,13,51,10.80
2009,09,28,13,52,10.80
2009,09,28,13,53,10.80
2009,09,28,13,54,10.80
2009,09,28,13,55,10.80
2009,09,28,13,56,10.80
2009,09,28,13,57,10.80
2009,09,28,13,58,10.70
2009,09,28,13,59,10.70
2009,09,28,14,00,10.70
2009,09,28,14,01,10.70
2009,09,28,14,02,10.60
2009,09,28,14,03,10.60
2009,09,28,14,04,10.60
2009,09,28,14,05,10.60
2009,09,28,14,06,10.60
2009,09,28,14,07,10.60
2009,09,28,14,08,10.60
2009,09,28,14,09,10.60
2009,09,28,14,10,10.60
2009,09,28,14,11,10.60
2009,09,28,14,12,10.60
2009,09,28,14,13,10.60
2009,09,28,14,14,10.60
2009,09,28,14,15,10.70
2009,09,28,14,16,10.70
2009,09,28,14,17,10.70
2009,09,28,14,18,10.70
2009,09,28,14,19,10.70
2009,09,28,14,20,10.70
2009,09,28,14,21,10.70
2009,09,28,14,22,10.70
2009,09,28,14,23,10.70
2009,09,28,14,24,10.70
2009,09,28,14,25,10.70
2009,09,28,14,26,10.70
2009,09,28,14,27,10.70
2009,09,28,14,28,10.70
2009,09,28,14,29,10.70
2009,09,28,14,30,10.60
2009,09,28,14,31,10.60
2009,09,28,14,32,10.60
2009,09,28,14,33,10.60
2009,09,28,14,34,10.60
2009,09,28,14,35,10.60
2009,09,28,14,36,10.60
2009,09,28,14,37,10.60
2009,09,28,14,38,10.60
2009,09,28,14,39,10.60
2009,09,28,14,40,10.60
2009,09,28,14,41,10.60
2009,09,28,14,42,10.60
2009,09,28,14,43,10.60
2009,09,28,14,44,10.60
2009,09,28,14,45,10.60
2009,09,28,14,46,10.60
2009,09,28,14,47,10.60
2009,09,28,14,48,10.60
2009,09,28,14,49,10.60
2009,09,28,14,50,10.60
2009,09,28,14,51,10.60
2009,09,28,14,52,10.60
2009,09,28,14,53,10.60
2009,09,28,14,54,10.70
2009,09,28,14,55,10.70
2009,09,28,14,56,10.70
2009,09,28,14,57,10.70
2009,09,28,14,58,10.70
2009,09,28,14,59,10.70
2009,09,28,15,00,10.70
2009,09,28,15,01,10.70
2009,09,28,15,02,10.70
2009,09,28,15,03,10.70
2009,09,28,15,04,10.70
2009,09,28,15,05,10.70
2009,09,28,15,06,10.70
2009,09,28,15,07,10.70
2009,09,28,15,08,10.70
2009,09,28,15,09,10.70
2009,09,28,15,10,10.70
2009,09,28,15,11,10.70
2009,09,28,15,12,10.70
2009,09,28,15,13,10.70
2009,09,28,15,14,10.70
2009,09,28,15,15,10.60
2009,09,28,15,16,10.60
2009,09,28,15,17,10.60
2009,09,28,15,18,10.60
2009,09,28,15,19,10.50
2009,09,28,15,20,10.50
2009,09,28,15,21,10.50
2009,09,28,15,22,10.40
2009,09,28,15,23,10.40
2009,09,28,15,24,10.40
2009,09,28,15,25,10.40
2009,09,28,15,26,10.40
2009,09,28,15,27,10.40
2009,09,28,15,28,10.40
2009,09,28,15,29,10.40
2009,09,28,15,30,10.40
2009,09,28,15,31,10.40
2009,09,28,15,32,10.40
2009,09,28,15,33,10.40
2009,09,28,15,34,10.40
2009,09,28,15,35,10.40
2009,09,28,15,36,10.40
2009,09,28,15,37,10.40
2009,09,28,15,38,10.40
2009,09,28,15,39,10.40
2009,09,28,15,40,10.40
2009,09,28,15,41,10.40
2009,09,28,15,42,10.40
2009,09,28,15,43,10.40
2009,09,28,15,44,10.30
2009,09,28,15,45,10.30
2009,09,28,15,46,10.30
2009,09,28,15,47,10.30
2009,09,28,15,48,10.30
2009,09,28,15,49,10.30
2009,09,28,15,50,10.30
2009,09,28,15,51,10.30
2009,09,28,15,52,10.30
2009,09,28,15,53,10.30
2009,09,28,15,54,10.30
2009,09,28,15,55,10.30
2009,09,28,15,56,10.30
2009,09,28,15,57,10.30
2009,09,28,15,58,10.30
2009,09,28,15,59,10.30
2009,09,28,16,00,10.30
2009,09,28,16,01,10.30
2009,09,28,16,02,10.40
2009,09,28,16,03,10.40
2009,09,28,16,04,10.40
2009,09,28,16,05,10.40
2009,09,28,16,06,10.40
2009,09,28,16,07,10.40
2009,09,28,16,08,10.40
2009,09,28,16,09,10.40
2009,09,28,16,10,10.30
2009,09,28,16,11,10.30
2009,09,28,16,12,10.30
2009,09,28,16,13,10.30
2009,09,28,16,14,10.30
2009,09,28,16,15,10.40
2009,09,28,16,16,10.40
2009,09,28,16,17,10.40
2009,09,28,16,18,10.40
2009,09,28,16,19,10.40
2009,09,28,16,20,10.50
2009,09,28,16,21,10.50
2009,09,28,16,22,10.50
2009,09,28,16,23,10.50
2009,09,28,16,24,10.50
2009,09,28,16,25,10.60
2009,09,28,16,26,10.50
2009,09,28,16,27,10.50
2009,09,28,16,28,10.60
2009,09,28,16,29,10.60
2009,09,28,16,30,10.60
2009,09,28,16,31,10.60
2009,09,28,16,32,10.60
2009,09,28,16,33,10.60
2009,09,28,16,34,10.60
2009,09,28,16,35,10.60
2009,09,28,16,36,10.60
2009,09,28,16,37,10.60
2009,09,28,16,38,10.60
2009,09,28,16,39,10.60
2009,09,28,16,40,10.60
2009,09,28,16,41,10.60
2009,09,28,16,42,10.60
2009,09,28,16,43,10.50
2009,09,28,16,44,10.50
2009,09,28,16,45,10.50
2009,09,28,16,46,10.50
2009,09,28,16,47,10.50
2009,09,28,16,48,10.50
2009,09,28,16,49,10.50
2009,09,28,16,50,10.50
2009,09,28,16,51,10.50
2009,09,28,16,52,10.50
2009,09,28,16,53,10.60
2009,09,28,16,54,10.50
2009,09,28,16,55,10.50
2009,09,28,16,56,10.50
2009,09,28,16,57,10.50
2009,09,28,16,58,10.50
2009,09,28,16,59,10.50
2009,09,28,17,00,10.50
2009,09,28,17,01,10.50
2009,09,28,17,02,10.50
2009,09,28,17,03,10.50
2009,09,28,17,04,10.50
2009,09,28,17,05,10.60
2009,09,28,17,06,10.60
2009,09,28,17,07,10.60
2009,09,28,17,08,10.60
2009,09,28,17,09,10.50
2009,09,28,17,10,10.40
2009,09,28,17,11,10.40
2009,09,28,17,12,10.30
2009,09,28,17,13,10.30
2009,09,28,17,14,10.20
2009,09,28,17,15,10.20
2009,09,28,17,16,10.20
2009,09,28,17,17,10.20
2009,09,28,17,18,10.20
2009,09,28,17,19,10.10
2009,09,28,17,20,10.10
2009,09,28,17,21,10.10
2009,09,28,17,22,10.10
2009,09,28,17,23,10.10
2009,09,28,17,24,10.10
2009,09,28,17,25,10.00
2009,09,28,17,26,10.00
2009,09,28,17,27,9.90
2009,09,28,17,28,9.90
2009,09,28,17,29,9.90
2009,09,28,17,30,9.90
2009,09,28,17,31,9.80
2009,09,28,17,32,9.80
2009,09,28,17,33,9.80
2009,09,28,17,34,9.70
2009,09,28,17,35,9.70
2009,09,28,17,36,9.60
2009,09,28,17,37,9.60
2009,09,28,17,38,9.60
2009,09,28,17,39,9.60
2009,09,28,17,40,9.60
2009,09,28,17,41,9.60
2009,09,28,17,42,9.60
2009,09,28,17,43,9.60
2009,09,28,17,44,9.50
2009,09,28,17,45,9.50
2009,09,28,17,46,9.50
2009,09,28,17,47,9.50
2009,09,28,17,48,9.50
2009,09,28,17,49,9.50
2009,09,28,17,50,9.50